[[{"header":{"parameterUnit":"m.s-1","parameterCategory":1,"la1":30.2991,"la2":30.254,"lo1":-89.0895,"lo2":-89.0444,"dx":0.0017,"dy":0.0017,"nx":28,"ny":28,"refTime":"2022-11-29T09:00:00:Z","depth":0,"parameterNumber":2,"parameterNumberName":"U-component_of_WINDS"},"data":[0,0,0,0,0,0,0,0,0,0,0,0,0,0,0,0,0,0,0,0,0,0,0,0,0,0,0,0,0,0,0,0,0,0,0,0,0,0,0,0,0,0,0,0,0,0,0,0,0,0,0,0,0,0,0,0,0,0,-3.2762,-3.2762,0,-3.2791,-3.2792,-3.2792,-3.2768,-3.2767,-3.2766,-3.2765,-3.2795,-3.2796,-3.2798,0,0,0,0,0,0,0,0,0,0,0,0,0,-3.2685,-3.2686,-3.2762,-3.2762,-3.2763,-3.2791,-3.2792,-3.2792,-3.2769,-3.2767,-3.2766,-3.2765,-3.2794,-3.2796,-3.2798,0,0,0,0,0,0,0,0,0,0,0,0,0,-3.2717,-3.2687,-3.2762,-3.2754,-3.2754,-3.2791,-3.2792,-3.2792,-3.2769,-3.2767,-3.2766,-3.2764,-3.2793,-3.2796,-3.2798,-3.2844,0,0,-3.2806,-3.2807,0,0,0,0,0,0,0,0,-3.2715,-3.2719,-3.2755,-3.2755,-3.2755,-3.2775,-3.2775,-3.281,-3.2769,-3.2763,-3.2765,-3.2764,-3.2789,-3.2792,-3.2801,-3.2846,-3.2847,-3.2806,-3.2808,-3.2809,-3.281,0,0,0,0,0,0,0,-3.2713,-3.2718,-3.2773,-3.2756,-3.2755,-3.2749,-3.2752,-3.2782,-3.2784,-3.2764,-3.2762,-3.2766,-3.2789,-3.2798,-3.2801,-3.2847,-3.2806,-3.2809,-3.281,-3.2811,-3.2932,-3.2934,0,0,0,0,0,0,-3.2711,-3.2716,-3.2773,-3.2774,-3.2731,-3.2752,-3.2755,-3.277,-3.2784,-3.2784,-3.2767,-3.2765,-3.2795,-3.2798,-3.2802,-3.2856,-3.2809,-3.2811,-3.2813,-3.293,-3.2932,-3.2934,0,0,0,0,0,0,-3.271,-3.2717,-3.2771,-3.2745,-3.2752,-3.2755,-3.2771,-3.2771,-3.2781,-3.2786,-3.2787,-3.2776,-3.2794,-3.2799,-3.2834,-3.2857,-3.2813,-3.2815,-3.2928,-3.2931,-3.2933,-3.2966,0,0,0,0,0,0,-3.2708,-3.2716,-3.2733,-3.2746,-3.2753,-3.2803,-3.2773,-3.2773,-3.2785,-3.2782,-3.2795,-3.2796,-3.2793,-3.2831,-3.2837,-3.286,-3.2817,-3.2926,-3.293,-3.2933,-3.2963,-3.2969,-3.2975,0,0,0,0,0,-3.2705,-3.2741,-3.2734,-3.2741,-3.2775,-3.2804,-3.2808,-3.2804,-3.2787,-3.2805,-3.2809,-3.2796,-3.2854,-3.2834,-3.2841,-3.2865,-3.2925,-3.2929,-3.2932,-3.296,-3.2968,-3.2975,0,0,0,0,0,0,-3.2731,-3.2742,-3.2735,-3.2776,-3.279,-3.28,-3.2822,-3.2813,-3.2831,-3.2827,-3.2821,-3.2824,-3.2862,-3.2868,-3.2845,-3.2911,-3.2887,-3.2892,-3.2905,-3.2913,-3.2919,-3.2916,-3.2819,0,0,0,0,0,-3.2741,-3.2765,-3.2774,-3.2809,-3.2816,-3.2818,-3.2831,-3.2827,-3.284,-3.2845,-3.2852,-3.2865,-3.2886,-3.29,-3.292,-3.2964,-3.2967,-3.2985,-3.2991,-3.2996,-3.2999,-3.3023,-3.3031,-3.2947,-3.2947,-3.2946,0,0,-3.2763,-3.2773,-3.2787,-3.2815,-3.2824,-3.2848,-3.2823,-3.2849,-3.2866,-3.2849,-3.2883,-3.2889,-3.2903,-3.2943,-3.2961,-3.2949,-3.3024,-3.3,-3.3004,-3.3005,-3.3028,-3.3036,-3.3043,-3.2949,-3.2949,-3.2948,0,0,-3.2815,-3.2825,-3.2855,-3.2866,-3.2881,-3.2883,-3.289,-3.2903,-3.2906,-3.294,-3.2927,-3.2949,-3.2986,-3.2996,-3.3007,-3.3065,-3.3053,-3.3072,-3.3102,-3.3125,-3.3132,-3.3138,-3.3157,-3.3165,-3.3076,-3.3076,-3.3076,0,-3.2839,-3.2875,-3.2872,-3.2899,-3.2911,-3.2898,-3.2929,-3.2939,-3.2961,-3.2969,-3.2956,-3.3003,-3.3012,-3.3054,-3.3068,-3.3077,-3.3085,-3.3069,-3.3131,-3.3137,-3.3142,-3.3161,-3.3169,-3.3078,-3.3078,-3.3078,-3.3078,0,-3.2904,-3.2929,-3.2952,-3.2974,-3.2989,-3.3018,-3.3019,-3.3035,-3.303,-3.3033,-3.3069,-3.3079,-3.3101,-3.3112,-3.3107,-3.3154,-3.3145,-3.3132,-3.3107,-3.3153,-3.317,-3.3177,-3.3081,-3.308,-3.308,-3.3079,0,0,-3.297,-3.2991,-3.2999,-3.3009,-3.3026,-3.3045,-3.3074,-3.3096,-3.311,-3.3126,-3.3149,-3.3182,-3.317,-3.3182,-3.3179,-3.3199,-3.3244,-3.3183,-3.3184,-3.3193,-3.3295,-3.3304,-3.3312,-3.3238,-3.3239,-3.324,-3.3294,0,-3.3021,-3.3071,-3.307,-3.3117,-3.314,-3.3129,-3.3154,-3.3167,-3.3171,-3.3192,-3.3196,-3.3219,-3.3202,-3.3209,-3.3229,-3.3234,-3.3264,-3.3231,-3.3259,-3.326,-3.3253,-3.3321,-3.3331,-3.338,-3.33,-3.3302,-3.3303,0,-3.3087,-3.3106,-3.3155,-3.3169,-3.3179,-3.3201,-3.3222,-3.3242,-3.3257,-3.3259,-3.3273,-3.3267,-3.3297,-3.3273,-3.3313,-3.3291,-3.3302,-3.3307,-3.3309,-3.3309,-3.3282,-3.3323,-3.3396,-3.3403,-3.3313,-3.3313,-3.3312,0,-3.3129,-3.3166,-3.32,-3.3209,-3.3227,-3.3243,-3.3252,-3.3266,-3.3279,-3.3298,-3.3306,-3.3328,-3.334,-3.3357,-3.3357,-3.334,-3.3398,-3.3374,-3.3399,-3.3399,-3.341,-3.3408,-3.3484,-3.3421,-3.342,-3.342,-3.342,0,-3.3185,-3.3215,-3.3219,-3.324,-3.3274,-3.3273,-3.3306,-3.3313,-3.3326,-3.3348,-3.334,-3.3361,-3.3361,-3.3382,-3.3383,-3.3416,-3.3422,-3.3423,-3.3423,-3.3423,-3.3422,-3.3429,-3.3425,-3.3422,-3.3422,-3.3421,-3.3421,0,-3.3236,-3.324,-3.3277,-3.3291,-3.3296,-3.332,-3.3332,-3.3352,-3.3357,-3.3385,-3.3391,-3.3398,-3.3423,-3.3425,-3.3454,-3.3455,-3.3494,-3.3491,-3.3489,-3.3488,-3.3512,-3.3509,-3.3593,-3.3604,-3.3535,-3.3535,-3.3536,0,-3.3271,-3.3294,-3.3311,-3.3326,-3.3335,-3.3358,-3.3372,-3.3373,-3.3388,-3.3408,-3.3426,-3.345,-3.3469,-3.3509,-3.3517,-3.3539,-3.3535,-3.3563,-3.3538,-3.3538,-3.3534,-3.3532,-3.3534,-3.3567,-3.3568,-3.3569,-3.3569,0,-3.3331,-3.3333,-3.3353,-3.3376,-3.3393,-3.341,-3.3427,-3.3439,-3.3442,-3.3459,-3.3485,-3.35,-3.353,-3.3554,-3.3576,-3.3585,-3.3577,-3.3577,-3.3584,-3.3583,-3.3581,-3.3581,-3.35,-3.3575,-3.3574,-3.3574,-3.3573,-3.3573,-3.3374,-3.3394,-3.341,-3.3433,-3.3446,-3.3462,-3.3481,-3.3489,-3.351,-3.3535,-3.3534,-3.3562,-3.3578,-3.3607,-3.3618,-3.364,-3.363,-3.364,-3.3642,-3.3644,-3.3646,-3.3579,-3.3644,-3.3644,-3.3644,-3.3643,-3.3643,0,-3.3433,-3.3443,-3.3465,-3.3488,-3.3507,-3.35,-3.3518,-3.3534,-3.3559,-3.3575,-3.3594,-3.3624,-3.3648,-3.3658,-3.3681,-3.3697,-3.3694,-3.3703,-3.3701,-3.3703,-3.3654,-3.3645,-3.3705,-3.3705,-3.3705,-3.3705,-3.3705,-3.3705,-3.3466,-3.3499,-3.3502,-3.3542,-3.3552,-3.3579,-3.359,-3.3605,-3.3617,-3.3651,-3.3671,-3.3678,-3.3691,-3.3716,-3.3737,-3.374,-3.3748,-3.3758,-3.3759,-3.3712,-3.3706,-3.37,-3.3692,-3.376,-3.376,-3.3805,-3.3806,-3.3806]},{"header":{"parameterUnit":"m.s-1","parameterCategory":1,"la1":30.2991,"la2":30.254,"lo1":-89.0895,"lo2":-89.0444,"dx":0.0017,"dy":0.0017,"nx":28,"ny":28,"refTime":"2022-11-29T09:00:00:Z","depth":0,"parameterNumber":3,"parameterNumberName":"V-component_of_WINDS"},"data":[0,0,0,0,0,0,0,0,0,0,0,0,0,0,0,0,0,0,0,0,0,0,0,0,0,0,0,0,0,0,0,0,0,0,0,0,0,0,0,0,0,0,0,0,0,0,0,0,0,0,0,0,0,0,0,0,0,0,3.6956,3.6957,0,3.7056,3.7057,3.7058,3.7105,3.7105,3.7105,3.7105,3.7206,3.7209,3.7212,0,0,0,0,0,0,0,0,0,0,0,0,0,3.6806,3.6809,3.6956,3.6957,3.6958,3.7056,3.7057,3.7059,3.7105,3.7105,3.7105,3.7105,3.7206,3.7209,3.7212,0,0,0,0,0,0,0,0,0,0,0,0,0,3.6885,3.681,3.6956,3.6993,3.6998,3.7056,3.7057,3.7059,3.7105,3.7105,3.7105,3.7105,3.7204,3.7208,3.7213,3.724,0,0,3.7225,3.7227,0,0,0,0,0,0,0,0,3.6881,3.6891,3.6986,3.6991,3.6996,3.7068,3.7042,3.712,3.7105,3.7064,3.7105,3.7105,3.716,3.7168,3.7187,3.7245,3.7249,3.7226,3.7228,3.723,3.7231,0,0,0,0,0,0,0,3.6875,3.6887,3.6995,3.6988,3.6994,3.7006,3.7017,3.7057,3.7112,3.7068,3.7072,3.7083,3.7163,3.7183,3.719,3.7251,3.7225,3.7229,3.7232,3.7233,3.7341,3.7341,0,0,0,0,0,0,3.6863,3.6882,3.6992,3.6998,3.6937,3.7009,3.7021,3.7045,3.7111,3.7121,3.7083,3.7085,3.7176,3.7185,3.7194,3.7233,3.723,3.7234,3.7236,3.734,3.7341,3.7341,0,0,0,0,0,0,3.686,3.6873,3.6988,3.6941,3.6957,3.7011,3.7038,3.7047,3.7067,3.7123,3.7133,3.7093,3.7176,3.7188,3.7229,3.7237,3.7236,3.7239,3.734,3.7341,3.7341,3.7311,0,0,0,0,0,0,3.6856,3.6871,3.6882,3.6941,3.6959,3.7022,3.7038,3.7049,3.7074,3.7078,3.7135,3.7145,3.7177,3.7223,3.7233,3.7243,3.7243,3.734,3.734,3.7341,3.7311,3.731,3.7309,0,0,0,0,0,3.685,3.6868,3.6882,3.6895,3.6973,3.7022,3.7032,3.707,3.7075,3.7086,3.7123,3.7143,3.7235,3.7227,3.7239,3.725,3.7339,3.734,3.7341,3.7312,3.731,3.7309,0,0,0,0,0,0,3.6806,3.6876,3.6892,3.693,3.697,3.703,3.7045,3.7066,3.7105,3.7107,3.7151,3.7164,3.7202,3.723,3.722,3.7282,3.7289,3.7292,3.7263,3.7262,3.7261,3.7254,3.7246,0,0,0,0,0,3.6801,3.6835,3.6894,3.6922,3.6941,3.699,3.7012,3.7038,3.7081,3.7098,3.7137,3.7178,3.7216,3.724,3.7279,3.7316,3.733,3.733,3.7328,3.7327,3.733,3.7355,3.7356,3.7344,3.7344,3.7344,0,0,3.6791,3.6833,3.6851,3.6914,3.6948,3.6983,3.7003,3.7038,3.7065,3.7103,3.7145,3.7176,3.7225,3.7265,3.7285,3.7289,3.7337,3.7328,3.7327,3.733,3.7356,3.7357,3.7358,3.7345,3.7344,3.7344,0,0,3.679,3.6824,3.6853,3.6887,3.6939,3.6972,3.6979,3.7037,3.7059,3.7102,3.7133,3.7165,3.723,3.7265,3.729,3.7307,3.7328,3.7318,3.7313,3.7337,3.7338,3.734,3.7348,3.735,3.7321,3.7321,3.732,0,3.677,3.6824,3.6864,3.6899,3.6927,3.6965,3.6995,3.7026,3.7088,3.7106,3.7111,3.7196,3.7231,3.7282,3.7286,3.7305,3.7316,3.7312,3.7335,3.7336,3.7338,3.7347,3.735,3.7319,3.7319,3.7319,3.732,0,3.6798,3.6835,3.6852,3.6913,3.6942,3.6974,3.7021,3.7047,3.7071,3.7104,3.715,3.7194,3.7243,3.7257,3.728,3.7312,3.7314,3.7326,3.7334,3.7337,3.7347,3.735,3.7317,3.7318,3.7318,3.7318,0,0,3.677,3.6856,3.6862,3.6891,3.6953,3.6983,3.7018,3.7068,3.709,3.7132,3.7164,3.7219,3.7232,3.7262,3.7289,3.731,3.7325,3.7321,3.7323,3.7322,3.7367,3.7358,3.7361,3.7339,3.734,3.734,3.7364,0,3.6779,3.6844,3.6884,3.6933,3.697,3.7008,3.7039,3.7081,3.7114,3.715,3.7186,3.7226,3.7238,3.7257,3.7279,3.7318,3.7335,3.7317,3.7371,3.7372,3.7359,3.7366,3.7356,3.7376,3.7367,3.7368,3.7368,0,3.6798,3.6841,3.6895,3.6956,3.6973,3.7,3.7051,3.7085,3.7134,3.7157,3.7192,3.7221,3.7261,3.7266,3.7323,3.7311,3.7335,3.7358,3.736,3.7367,3.7371,3.7375,3.7382,3.7386,3.7374,3.7373,3.7373,0,3.6775,3.6847,3.6889,3.6913,3.6985,3.7004,3.7035,3.7084,3.7113,3.7158,3.7177,3.7225,3.7252,3.7289,3.7331,3.733,3.7386,3.7393,3.7407,3.7406,3.7417,3.7416,3.7431,3.7431,3.7431,3.7431,3.743,0,3.6782,3.6813,3.688,3.6906,3.6944,3.699,3.7027,3.7061,3.7105,3.714,3.7175,3.7207,3.726,3.7298,3.7331,3.7376,3.7387,3.7407,3.7416,3.7405,3.7403,3.7422,3.7423,3.7431,3.7431,3.7431,3.7431,0,3.6762,3.6808,3.6857,3.6923,3.694,3.6966,3.7022,3.705,3.7086,3.7129,3.7142,3.7198,3.7246,3.7291,3.7354,3.7377,3.7422,3.7433,3.7406,3.7411,3.7424,3.7423,3.7452,3.746,3.7452,3.7452,3.7452,0,3.6764,3.679,3.6859,3.6886,3.6916,3.6957,3.6988,3.7036,3.7066,3.7127,3.7148,3.7199,3.7242,3.7317,3.7364,3.7413,3.7426,3.7433,3.7434,3.7423,3.7429,3.7428,3.7432,3.7432,3.7432,3.7432,3.7432,0,3.6763,3.6785,3.6828,3.688,3.6916,3.6958,3.7002,3.7022,3.7078,3.7111,3.7161,3.7195,3.7262,3.7313,3.7369,3.7402,3.7427,3.7432,3.7438,3.7428,3.7412,3.7423,3.7405,3.7431,3.7431,3.7431,3.7431,3.7431,3.6755,3.6781,3.6836,3.6883,3.6922,3.6964,3.6994,3.7035,3.7078,3.7137,3.7162,3.7214,3.7267,3.7345,3.7378,3.7419,3.7425,3.7433,3.7436,3.7438,3.7437,3.7405,3.7429,3.7429,3.743,3.743,3.743,0,3.6758,3.6796,3.6839,3.6901,3.6939,3.6961,3.7012,3.7043,3.7088,3.7135,3.7178,3.7238,3.7289,3.7341,3.7395,3.7419,3.7432,3.7431,3.7431,3.7439,3.7427,3.7418,3.742,3.742,3.742,3.742,3.742,3.742,3.6764,3.681,3.684,3.6908,3.6945,3.6997,3.7025,3.7064,3.7103,3.7168,3.7211,3.7245,3.7296,3.7354,3.7403,3.7417,3.7436,3.7432,3.745,3.7438,3.7439,3.7439,3.7431,3.7436,3.7436,3.7458,3.7459,3.7459]}]]